When you browse on this site, cookies collect data to enhance your experience and personalize the content and advertising you see.
Visit our Privacy Policy to learn more. By continuing to use the site, you agree to this use of cookies and data.
  • In Österreich
  • Länderverzeichnis
  • Für 7 Tage
  • Wassertemperatur
  • Satellitenkarten
  • Wetterkarte
  • News
  • Widgets
  • user-avatar
    Anmelden

    Stündliche Wetter Sumgayit

    Heute, 20 Juli, Samstag

    Zeit Temperatur Niederschläge Wind Luftdruck Luftfeuchtigkeit
    00:00 +29°C° 0 mm 7 m/S 738 mmHg 35%
    01:00 +29°C° 0 mm 6 m/S 738 mmHg 35%
    02:00 +29°C° 0 mm 6 m/S 737 mmHg 35%
    03:00 +29°C° 0 mm 6 m/S 737 mmHg 35%
    04:00 +29°C° 0 mm 6 m/S 738 mmHg 34%
    05:00 +29°C° 0 mm 6 m/S 739 mmHg 34%
    06:00 +30°C° 0 mm 6 m/S 739 mmHg 33%
    07:00 +32°C° 0 mm 8 m/S 739 mmHg 31%
    08:00 +33°C° 0 mm 9 m/S 739 mmHg 29%
    09:00 +36°C° 0 mm 10 m/S 740 mmHg 27%
    10:00 +36°C° 0 mm 10 m/S 740 mmHg 27%
    11:00 +37°C° 0 mm 10 m/S 740 mmHg 27%
    12:00 +37°C° 0 mm 10 m/S 740 mmHg 27%
    13:00 +37°C° 0 mm 11 m/S 740 mmHg 28%
    14:00 +37°C° 0 mm 11 m/S 739 mmHg 28%
    15:00 +37°C° 0 mm 12 m/S 739 mmHg 29%
    16:00 +36°C° 0 mm 12 m/S 739 mmHg 29%
    17:00 +34°C° 0 mm 12 m/S 739 mmHg 30%
    18:00 +34°C° 0 mm 12 m/S 739 mmHg 30%
    19:00 +33°C° 0 mm 11 m/S 739 mmHg 32%
    20:00 +32°C° 0 mm 11 m/S 739 mmHg 33%
    21:00 +32°C° 0 mm 10 m/S 739 mmHg 35%
    22:00 +32°C° 0 mm 10 m/S 739 mmHg 34%
    23:00 +32°C° 0 mm 10 m/S 740 mmHg 33%

    Morgen, 21 Juli, Sonntag

    Zeit Temperatur Niederschläge Wind Luftdruck Luftfeuchtigkeit
    00:00 +31°C° 0 mm 10 m/S 740 mmHg 32%
    01:00 +31°C° 0 mm 9 m/S 739 mmHg 33%
    02:00 +31°C° 0 mm 9 m/S 739 mmHg 34%
    03:00 +31°C° 0 mm 9 m/S 739 mmHg 35%
    04:00 +31°C° 0 mm 9 m/S 739 mmHg 35%
    05:00 +31°C° 0 mm 9 m/S 739 mmHg 35%
    06:00 +31°C° 0 mm 10 m/S 739 mmHg 35%
    07:00 +32°C° 0 mm 10 m/S 740 mmHg 33%
    08:00 +34°C° 0 mm 10 m/S 740 mmHg 32%
    09:00 +35°C° 0 mm 9 m/S 740 mmHg 30%
    10:00 +35°C° 0 mm 9 m/S 739 mmHg 29%
    11:00 +37°C° 0 mm 9 m/S 739 mmHg 28%
    12:00 +38°C° 0 mm 9 m/S 739 mmHg 27%
    13:00 +37°C° 0 mm 8 m/S 738 mmHg 28%
    14:00 +37°C° 0 mm 8 m/S 738 mmHg 28%
    15:00 +36°C° 0 mm 7 m/S 737 mmHg 28%
    16:00 +35°C° 0 mm 7 m/S 737 mmHg 31%
    17:00 +34°C° 0 mm 7 m/S 737 mmHg 34%
    18:00 +33°C° 0 mm 7 m/S 737 mmHg 37%
    19:00 +32°C° 0 mm 7 m/S 737 mmHg 39%
    20:00 +30°C° 0 mm 6 m/S 737 mmHg 42%
    21:00 +30°C° 0 mm 6 m/S 737 mmHg 44%
    22:00 +29°C° 0 mm 6 m/S 737 mmHg 44%
    23:00 +29°C° 0 mm 5 m/S 737 mmHg 44%

    übermorgen, 22 Juli, Montag

    Zeit Temperatur Niederschläge Wind Luftdruck Luftfeuchtigkeit
    00:00 +29°C° 0 mm 4 m/S 737 mmHg 44%
    01:00 +28°C° 0 mm 4 m/S 736 mmHg 46%
    02:00 +28°C° 0 mm 3 m/S 736 mmHg 48%
    03:00 +27°C° 0 mm 3 m/S 736 mmHg 49%
    04:00 +28°C° 0 mm 3 m/S 736 mmHg 48%
    05:00 +28°C° 0 mm 3 m/S 736 mmHg 47%
    06:00 +28°C° 0 mm 3 m/S 736 mmHg 45%
    07:00 +30°C° 0 mm 4 m/S 736 mmHg 42%
    08:00 +32°C° 0 mm 6 m/S 737 mmHg 38%
    09:00 +33°C° 0 mm 8 m/S 737 mmHg 34%
    10:00 +34°C° 0 mm 9 m/S 737 mmHg 34%
    11:00 +34°C° 0 mm 10 m/S 737 mmHg 34%
    12:00 +36°C° 0 mm 11 m/S 737 mmHg 34%
    13:00 +36°C° 0 mm 12 m/S 737 mmHg 35%
    14:00 +36°C° 0 mm 12 m/S 737 mmHg 37%
    15:00 +36°C° 0 mm 12 m/S 736 mmHg 38%
    16:00 +34°C° 0 mm 12 m/S 736 mmHg 39%
    17:00 +33°C° 0 mm 12 m/S 736 mmHg 41%
    18:00 +32°C° 0 mm 11 m/S 736 mmHg 42%
    19:00 +32°C° 0 mm 11 m/S 736 mmHg 44%
    20:00 +31°C° 0 mm 11 m/S 736 mmHg 45%
    21:00 +31°C° 0 mm 10 m/S 737 mmHg 47%
    22:00 +31°C° 0 mm 10 m/S 736 mmHg 46%
    23:00 +31°C° 0 mm 9 m/S 736 mmHg 45%

    23 Juli, Dienstag

    Zeit Temperatur Niederschläge Wind Luftdruck Luftfeuchtigkeit
    00:00 +31°C° 0 mm 9 m/S 736 mmHg 43%
    01:00 +29°C° 0 mm 9 m/S 736 mmHg 43%
    02:00 +29°C° 0 mm 8 m/S 736 mmHg 42%
    03:00 +29°C° 0 mm 8 m/S 736 mmHg 42%
    04:00 +29°C° 0 mm 7 m/S 736 mmHg 42%
    05:00 +29°C° 0 mm 7 m/S 736 mmHg 43%
    06:00 +29°C° 0 mm 6 m/S 736 mmHg 44%
    07:00 +30°C° 0 mm 6 m/S 736 mmHg 40%
    08:00 +32°C° 0 mm 6 m/S 736 mmHg 37%
    09:00 +33°C° 0 mm 6 m/S 736 mmHg 34%
    10:00 +34°C° 0 mm 6 m/S 736 mmHg 33%
    11:00 +35°C° 0 mm 7 m/S 736 mmHg 32%
    12:00 +35°C° 0 mm 7 m/S 736 mmHg 31%
    13:00 +35°C° 0 mm 8 m/S 735 mmHg 33%
    14:00 +36°C° 0 mm 10 m/S 735 mmHg 34%
    15:00 +34°C° 0 mm 11 m/S 734 mmHg 36%
    16:00 +33°C° 0 mm 11 m/S 734 mmHg 36%
    17:00 +33°C° 0 mm 11 m/S 734 mmHg 37%
    18:00 +32°C° 0 mm 11 m/S 734 mmHg 37%
    19:00 +32°C° 0 mm 10 m/S 734 mmHg 39%
    20:00 +31°C° 0 mm 10 m/S 734 mmHg 40%
    21:00 +29°C° 0 mm 9 m/S 735 mmHg 42%
    22:00 +29°C° 0 mm 8 m/S 735 mmHg 43%
    23:00 +29°C° 0 mm 7 m/S 735 mmHg 43%

    24 Juli, Mittwoch

    Zeit Temperatur Niederschläge Wind Luftdruck Luftfeuchtigkeit
    00:00 +29°C° 0 mm 6 m/S 734 mmHg 44%
    01:00 +28°C° 0 mm 5 m/S 734 mmHg 46%
    02:00 +28°C° 0 mm 4 m/S 734 mmHg 48%
    03:00 +27°C° 0 mm 3 m/S 734 mmHg 50%
    04:00 +27°C° 0 mm 3 m/S 734 mmHg 50%
    05:00 +28°C° 0 mm 2 m/S 734 mmHg 49%
    06:00 +28°C° 0 mm 2 m/S 734 mmHg 48%
    07:00 +30°C° 0 mm 2 m/S 734 mmHg 44%
    08:00 +31°C° 0 mm 2 m/S 735 mmHg 39%
    09:00 +33°C° 0 mm 3 m/S 735 mmHg 34%
    10:00 +34°C° 0 mm 3 m/S 734 mmHg 33%
    11:00 +35°C° 0 mm 4 m/S 734 mmHg 32%
    12:00 +35°C° 0 mm 4 m/S 734 mmHg 31%
    13:00 +35°C° 0 mm 5 m/S 734 mmHg 31%
    14:00 +35°C° 0 mm 5 m/S 733 mmHg 32%
    15:00 +35°C° 0 mm 5 m/S 733 mmHg 32%
    16:00 +34°C° 0 mm 5 m/S 733 mmHg 34%
    17:00 +33°C° 0 mm 5 m/S 733 mmHg 36%
    18:00 +32°C° 0 mm 5 m/S 733 mmHg 38%
    19:00 +30°C° 0 mm 4 m/S 733 mmHg 42%
    20:00 +29°C° 0 mm 3 m/S 733 mmHg 45%
    21:00 +29°C° 0 mm 2 m/S 734 mmHg 49%
    22:00 +28°C° 0 mm 1 m/S 734 mmHg 51%
    23:00 +28°C° 0 mm 1 m/S 733 mmHg 54%

    25 Juli, Donnerstag

    Zeit Temperatur Niederschläge Wind Luftdruck Luftfeuchtigkeit
    00:00 +27°C° 0 mm 1 m/S 733 mmHg 56%
    01:00 +27°C° 0 mm 1 m/S 733 mmHg 56%
    02:00 +27°C° 0 mm 1 m/S 733 mmHg 55%
    03:00 +27°C° 0 mm 1 m/S 733 mmHg 55%
    04:00 +28°C° 0 mm 1 m/S 733 mmHg 53%
    05:00 +28°C° 0 mm 1 m/S 734 mmHg 51%
    06:00 +29°C° 0 mm 1 m/S 734 mmHg 49%
    07:00 +30°C° 0 mm 1 m/S 734 mmHg 46%
    08:00 +31°C° 0 mm 2 m/S 734 mmHg 42%
    09:00 +32°C° 0 mm 2 m/S 735 mmHg 39%
    10:00 +34°C° 0 mm 2 m/S 734 mmHg 37%
    11:00 +35°C° 0 mm 3 m/S 734 mmHg 36%
    12:00 +36°C° 0 mm 4 m/S 734 mmHg 34%
    13:00 +36°C° 0 mm 5 m/S 734 mmHg 34%
    14:00 +36°C° 0 mm 5 m/S 733 mmHg 33%
    15:00 +36°C° 0 mm 6 m/S 733 mmHg 33%
    16:00 +34°C° 0 mm 7 m/S 733 mmHg 35%
    17:00 +33°C° 0 mm 7 m/S 733 mmHg 36%
    18:00 +32°C° 0 mm 7 m/S 733 mmHg 38%
    19:00 +30°C° 0 mm 6 m/S 733 mmHg 40%
    20:00 +30°C° 0 mm 5 m/S 733 mmHg 41%
    21:00 +29°C° 0 mm 4 m/S 733 mmHg 43%
    22:00 +29°C° 0 mm 3 m/S 733 mmHg 44%
    23:00 +29°C° 0 mm 3 m/S 733 mmHg 45%
    Mehr zeigen